Regional Weather Roundup
Issued by NWS

Home | Current Version | Previous Version | Text Only | Print | Product List | Glossary On
Versions: 1 2 3 4 5 6 7 8 9 10 11 12 13 14 15 16 17 18 19 20 21 22 23 24 25 26 27 28 29 30 31 32 33 34 35 36 37 38 39 40 41 42 43 44 45 46 47 48 49 50
000
ASUS44 KFWD 010615
RWRTX
NORTH TEXAS HOURLY WEATHER ROUNDUP
NATIONAL WEATHER SERVICE FORT WORTH TX
100 AM CDT TUE SEP 01 2015

NOTE: "FAIR" INDICATES FEW OR NO CLOUDS BELOW 12,000 FEET WITH NO
SIGNIFICANT WEATHER AND/OR OBSTRUCTIONS TO VISIBILITY.

TXZ118-119-010700-
DALLAS/FORT WORTH METROPLEX

CITY           SKY/WX    TMP DP  RH WIND       PRES   REMARKS
DFW AIRPORT    FAIR      82  65  56 S9        30.00R
6HR MIN TEMP:  82; 6HR MAX TEMP:  91;

DALLAS LOVE    FAIR      82  66  58 S12       30.01R
6HR MIN TEMP:  82; 6HR MAX TEMP:  92;

FTW MEACHAM    FAIR      83  67  58 S14       30.00R
6HR MIN TEMP:  83; 6HR MAX TEMP:  92;

DAL-EXECUTIVE  FAIR      80  67  64 S7        30.01R
6HR MIN TEMP:  80; 6HR MAX TEMP:  90;

FTW-ALLIANCE   FAIR      79  65  62 SE6       30.00R
6HR MIN TEMP:  79; 6HR MAX TEMP:  91;

FTW-NAS-JRB    FAIR      82  67  60 S10       30.01R
6HR MIN TEMP:  82; 6HR MAX TEMP:  92;

FTW-SPINKS     FAIR      78  67  67 S7        30.03R
6HR MIN TEMP:  77; 6HR MAX TEMP:  89;

ARLINGTON      FAIR      82  65  56 SE9       30.01R
6HR MIN TEMP:  82; 6HR MAX TEMP:  93;

GRAND PRAIRIE  FAIR      81  68  65 S6        30.02R
6HR MIN TEMP:  81; 6HR MAX TEMP:  91;

ADDISON        FAIR      82  68  62 S9        30.03R
6HR MIN TEMP:  82; 6HR MAX TEMP:  91;

MESQUITE       FAIR      78  66  68 S7        30.02R
6HR MIN TEMP:  78; 6HR MAX TEMP:  90;

LANCASTER      FAIR      79  65  63 S5        30.02S
6HR MIN TEMP:  78; 6HR MAX TEMP:  91;

$$

TXZ091>094-102>105-117-120-121-131>134-010700-
NORTH CENTRAL TEXAS

CITY           SKY/WX    TMP DP  RH WIND       PRES   REMARKS
SHRMAN/DENISON FAIR      80  66  62 SE10      30.02S
6HR MIN TEMP:  80; 6HR MAX TEMP:  90;

GAINESVILLE    FAIR      76  63  62 E3        30.03S
6HR MIN TEMP:  76; 6HR MAX TEMP:  89;

BOWIE          FAIR      74  63  69 CALM      30.02R
6HR MIN TEMP:  74; 6HR MAX TEMP:  89;

BRIDGEPORT     FAIR      77  66  68 SE6       30.02S
6HR MIN TEMP:  76; 6HR MAX TEMP:  90;

DECATUR        FAIR      78  63  58 SE7       30.02R
6HR MIN TEMP:  78; 6HR MAX TEMP:  90;

DENTON         FAIR      79  65  62 SE7       30.00R
6HR MIN TEMP:  79; 6HR MAX TEMP:  91;

MCKINNEY       FAIR      79  66  64 SE9       30.01R
6HR MIN TEMP:  78; 6HR MAX TEMP:  89;

GREENVILLE     FAIR      75  64  69 SE6       30.03R
ROCKWALL       FAIR      79  67  68 S8        30.01R
6HR MIN TEMP:  78; 6HR MAX TEMP:  89;

TERRELL        FAIR      77  68  73 S6        30.03R
6HR MIN TEMP:  77; 6HR MAX TEMP:  89;

WAXAHACHIE     FAIR      78  69  73 S6        30.03R
6HR MIN TEMP:  78; 6HR MAX TEMP:  90;

CLEBURNE         N/A     79  72  78 S7        30.04R
GRANBURY       FAIR      81  68  64 SE8       30.02R
6HR MIN TEMP:  81; 6HR MAX TEMP:  92;

$$

TXZ083>090-098>101-113>116-127>130-139>142-154-155-010700-
WESTERN NORTH TEXAS

CITY           SKY/WX    TMP DP  RH WIND       PRES   REMARKS
WICHITA FALLS  FAIR      76  63  64 SE8       29.99R
6HR MIN TEMP:  76; 6HR MAX TEMP:  92;

WF-KICKAPOO    FAIR      79  64  59 E3        30.00S
6HR MIN TEMP:  79; 6HR MAX TEMP:  94;

VERNON         FAIR      81  57  43 SE8       29.99R
6HR MIN TEMP:  81; 6HR MAX TEMP:  98;

ABILENE        FAIR      76  59  55 SE12      30.01S
6HR MIN TEMP:  76; 6HR MAX TEMP:  91;

ABILENE-DYESS  FAIR      77  60  55 S10       30.00R
6HR MIN TEMP:  75; 6HR MAX TEMP:  92;

BRECKENRIDGE   FAIR      81  63  54 SE12      30.00R
6HR MIN TEMP:  79; 6HR MAX TEMP:  93;

GRAHAM         FAIR      79  64  60 SE6       29.99R
6HR MIN TEMP:  79; 6HR MAX TEMP:  91;

MINERAL WELLS  FAIR      76  66  71 SE7       29.99R
6HR MIN TEMP:  76; 6HR MAX TEMP:  89;

STEPHENVILLE   FAIR      76  67  74 SE5       30.06R
6HR MIN TEMP:  76; 6HR MAX TEMP:  88;

COMANCHE       FAIR      78  67  70 S9        30.03R
6HR MIN TEMP:  78; 6HR MAX TEMP:  91;

BROWNWOOD      CLOUDY    77  66  69 SE10      30.03R
COLEMAN        FAIR      78  64  61 S7        30.03R
6HR MIN TEMP:  78; 6HR MAX TEMP:  92;

BRADY          CLEAR     79  64  61 SE9       30.04R
$$

TXZ143>147-156>162-174-175-010700-
CENTRAL TEXAS

CITY           SKY/WX    TMP DP  RH WIND       PRES   REMARKS
WACO           FAIR      79  68  69 S14       30.02R
6HR MIN TEMP:  79; 6HR MAX TEMP:  93; 6HR PCP: TRACE;

WACO-MCGREGOR  FAIR      77  69  76 S10       30.03R
6HR MIN TEMP:  77; 6HR MAX TEMP:  92;

HILLSBORO      FAIR      78  66  66 S9        30.03R
6HR MIN TEMP:  78; 6HR MAX TEMP:  91;

CORSICANA      FAIR      77  70  79 S6        30.04R
6HR MIN TEMP:  77; 6HR MAX TEMP:  91;

MEXIA          FAIR      75  70  83 SE7       30.03R
6HR MIN TEMP:  75; 6HR MAX TEMP:  90;

HEARNE         FAIR      75  70  85 SE5       30.04R
6HR MIN TEMP:  75; 6HR MAX TEMP:  87;

CAMERON        FAIR      76  70  82 S7        30.04R
6HR MIN TEMP:  76; 6HR MAX TEMP:  88;

TEMPLE         FAIR      75  64  69 SE9       30.04R
6HR MIN TEMP:  75; 6HR MAX TEMP:  91;

KILLEEN        FAIR      76  67  75 S8        30.03R
6HR MIN TEMP:  75; 6HR MAX TEMP:  91;

KILLEEN-SKYLRK FAIR      75  64  69 S7        30.03R
6HR MIN TEMP:  75; 6HR MAX TEMP:  91;

FORT HOOD      FAIR      76  67  75 SE8       30.02R
6HR MIN TEMP:  76; 6HR MAX TEMP:  91;

GATESVILLE     FAIR      75  66  73 CALM      30.06R
HAMILTON       FAIR      76  66  71 S8        30.05R
6HR MIN TEMP:  76; 6HR MAX TEMP:  91;

$$

TXZ095>097-106>112-122>126-135>138-148>153-164>167-010700-
EAST TEXAS

CITY           SKY/WX    TMP DP  RH WIND       PRES   REMARKS
PARIS          FAIR      72  61  68 SE7       30.03R
6HR MIN TEMP:  72; 6HR MAX TEMP:  90;

SULPHUR SPRNGS FAIR      78  66  65 S7        30.05R
6HR MIN TEMP:  78; 6HR MAX TEMP:  88;

MOUNT PLEASANT FAIR      72  65  79 CALM      30.05S
6HR MIN TEMP:  72; 6HR MAX TEMP:  88;

MINEOLA        FAIR      79  70  73 S5        30.04R
TYLER          FAIR      76  67  73 S6        30.04R
6HR MIN TEMP:  76; 6HR MAX TEMP:  88;

LONGVIEW       FAIR      74  67  78 S5        30.04R
6HR MIN TEMP:  73; 6HR MAX TEMP:  88;

MARSHALL       FAIR      73  70  88 CALM      30.06R
6HR MIN TEMP:  73; 6HR MAX TEMP:  89;

ATHENS         FAIR      73  68  83 S3        30.03R
PALESTINE      FAIR      76  69  79 SE3       30.05R
JACKSONVILLE   FAIR      76  68  77 S9        30.08R
HENDERSON      FAIR      72  67  83 CALM      30.06R
6HR MIN TEMP:  72; 6HR MAX TEMP:  86;

CENTER         FAIR      72  68  86 CALM      30.04R
6HR MIN TEMP:  72; 6HR MAX TEMP:  88;

NACOGDOCHES    FAIR      72  66  83 CALM      30.04S
6HR MIN TEMP:  70; 6HR MAX TEMP:  86;

LUFKIN         FAIR      72  69  90 CALM      30.04R
6HR MIN TEMP:  71; 6HR MAX TEMP:  85;

$$

SUPPLEMENTAL OBSERVATIONS (CENTRAL)

CITY           SKY/WX    TMP DP  RH WIND       PRES   REMARKS
LAKE TEXOMA      N/A     73  64  73 E3          N/A
PAT MAYSE LAKE   N/A     77  64  65 SE8         N/A
ATHENS           N/A     77  66  69 S6          N/A
LAKE LIMESTONE   N/A     75  68  78 SE2         N/A
MCGREGOR         N/A     77  66  69 S12         N/A
TEMPLE           N/A     73  66  78 SE6         N/A


USA.gov is the U.S. government's official web portal to all federal, state and local government web resources and services.